| time (UTC) | temp F | wind direction | speed knots | gust knots | rain 1hr in | rain 24hr in | rain mn in | humidity % | barometer mb |
| 20260508182513 | 71 | 172 | 0.9 | 4.3 | 0.00 | 0.21 | 0.00 | 39 | 1015.0 |
| 20260508182103 | 71 | 218 | 1.7 | 4.3 | 0.00 | 0.21 | 0.00 | 42 | 1015.0 |
| 20260508181502 | 71 | 181 | 0.0 | 2.6 | 0.00 | 0.21 | 0.00 | 39 | 1015.1 |
| 20260508181013 | 71 | 164 | 0.9 | 2.6 | 0.00 | 0.21 | 0.00 | 42 | 1015.2 |
| 20260508180604 | 71 | 135 | 0.0 | 2.6 | 0.00 | 0.21 | 0.00 | 47 | 1015.4 |
| 20260508180004 | 70 | 8 | 0.9 | 4.3 | 0.00 | 0.21 | 0.00 | 37 | 1015.3 |
| 20260508175509 | 70 | 214 | 1.7 | 4.3 | 0.00 | 0.21 | 0.00 | 37 | 1015.5 |
| 20260508175105 | 70 | 176 | 1.7 | 5.2 | 0.00 | 0.21 | 0.00 | 40 | 1015.5 |
| 20260508174505 | 70 | 205 | 1.7 | 5.2 | 0.00 | 0.21 | 0.00 | 40 | 1015.5 |
| 20260508174009 | 70 | 184 | 1.7 | 4.3 | 0.00 | 0.21 | 0.00 | 43 | 1015.6 |
| 20260508173603 | 70 | 170 | 0.0 | 1.7 | 0.00 | 0.21 | 0.00 | 43 | 1015.7 |
| 20260508173005 | 69 | 164 | 0.9 | 3.5 | 0.00 | 0.21 | 0.00 | 47 | 1015.8 |
| 20260508172509 | 69 | 167 | 0.9 | 3.5 | 0.00 | 0.21 | 0.00 | 52 | 1015.8 |
| 20260508172106 | 68 | 167 | 1.7 | 4.3 | 0.00 | 0.21 | 0.00 | 45 | 1016.0 |
| 20260508171507 | 68 | 226 | 0.0 | 4.3 | 0.00 | 0.21 | 0.00 | 44 | 1015.9 |
| 20260508171008 | 68 | 193 | 0.9 | 3.5 | 0.00 | 0.21 | 0.00 | 41 | 1016.0 |
| 20260508170603 | 68 | 225 | 0.9 | 3.5 | 0.00 | 0.21 | 0.00 | 44 | 1016.0 |
| 20260508170003 | 68 | 224 | 0.9 | 4.3 | 0.00 | 0.21 | 0.00 | 47 | 1016.1 |
| 20260508165509 | 68 | 228 | 1.7 | 4.3 | 0.00 | 0.21 | 0.00 | 47 | 1016.1 |
| 20260508165103 | 67 | 160 | 0.0 | 3.5 | 0.00 | 0.21 | 0.00 | 45 | 1016.1 |
| 20260508164503 | 67 | 6 | 1.7 | 4.3 | 0.00 | 0.21 | 0.00 | 46 | 1016.2 |
| 20260508164011 | 67 | 162 | 0.9 | 2.6 | 0.00 | 0.21 | 0.00 | 47 | 1016.4 |
| 20260508163602 | 67 | 340 | 0.9 | 4.3 | 0.00 | 0.21 | 0.00 | 46 | 1016.5 |
| 20260508163003 | 67 | 340 | 2.6 | 4.3 | 0.00 | 0.21 | 0.00 | 52 | 1016.6 |
| 20260508162509 | 66 | 324 | 0.9 | 3.5 | 0.00 | 0.21 | 0.00 | 46 | 1016.7 |
| 20260508162103 | 66 | 332 | 0.9 | 3.5 | 0.00 | 0.21 | 0.00 | 45 | 1016.8 |
| 20260508161504 | 66 | 255 | 0.0 | 6.1 | 0.00 | 0.21 | 0.00 | 42 | 1016.8 |
| 20260508161011 | 66 | 323 | 1.7 | 6.1 | 0.00 | 0.21 | 0.00 | 47 | 1016.9 |
| 20260508160604 | 66 | 337 | 1.7 | 3.5 | 0.00 | 0.21 | 0.00 | 52 | 1016.9 |
| 20260508160003 | 65 | 308 | 0.0 | 4.3 | 0.00 | 0.21 | 0.00 | 54 | 1016.9 |
| 20260508155511 | 65 | 347 | 1.7 | 4.3 | 0.00 | 0.22 | 0.00 | 55 | 1017.1 |
| 20260508155105 | 65 | 30 | 1.7 | 4.3 | 0.00 | 0.22 | 0.00 | 48 | 1017.0 |
| 20260508154503 | 64 | 290 | 0.0 | 4.3 | 0.00 | 0.22 | 0.00 | 60 | 1017.2 |
| 20260508154009 | 64 | 34 | 1.7 | 5.2 | 0.00 | 0.22 | 0.00 | 52 | 1017.1 |
| 20260508153603 | 63 | 347 | 1.7 | 5.2 | 0.00 | 0.22 | 0.00 | 57 | 1017.2 |
| 20260508153004 | 63 | 334 | 1.7 | 3.5 | 0.00 | 0.22 | 0.00 | 65 | 1017.2 |
| 20260508152510 | 63 | 248 | 0.9 | 3.5 | 0.00 | 0.22 | 0.00 | 59 | 1017.3 |
| 20260508152105 | 62 | 326 | 0.0 | 3.5 | 0.00 | 0.22 | 0.00 | 53 | 1017.4 |
| 20260508151503 | 62 | 320 | 0.9 | 3.5 | 0.00 | 0.22 | 0.00 | 58 | 1017.4 |
| 20260508151010 | 61 | 346 | 0.9 | 2.6 | 0.00 | 0.22 | 0.00 | 63 | 1017.5 |
| 20260508150603 | 60 | 230 | 0.0 | 3.5 | 0.00 | 0.22 | 0.00 | 65 | 1017.5 |
| 20260508150007 | 60 | 8 | 0.9 | 4.3 | 0.00 | 0.22 | 0.00 | 63 | 1017.5 |
| 20260508145509 | 59 | 347 | 0.9 | 4.3 | 0.00 | 0.25 | 0.00 | 67 | 1017.6 |
| 20260508145105 | 59 | 250 | 0.0 | 4.3 | 0.00 | 0.25 | 0.00 | 70 | 1017.5 |
| 20260508144504 | 58 | 348 | 0.9 | 1.7 | 0.00 | 0.25 | 0.00 | 78 | 1017.5 |
| 20260508144009 | 57 | 25 | 0.0 | 4.3 | 0.00 | 0.25 | 0.00 | 72 | 1017.4 |
| 20260508143604 | 57 | 29 | 0.0 | 4.3 | 0.00 | 0.25 | 0.00 | 77 | 1017.4 |
| 20260508143007 | 56 | 299 | 0.9 | 2.6 | 0.00 | 0.25 | 0.00 | 78 | 1017.4 |
| 20260508142509 | 55 | 348 | 0.9 | 2.6 | 0.00 | 0.25 | 0.00 | 79 | 1017.3 |
| 20260508142103 | 55 | 347 | 0.0 | 2.6 | 0.00 | 0.25 | 0.00 | 87 | 1017.3 |
| 20260508141503 | 54 | 349 | 0.9 | 2.6 | 0.00 | 0.25 | 0.00 | 92 | 1017.3 |
| 20260508141011 | 53 | 311 | 0.0 | 1.7 | 0.00 | 0.25 | 0.00 | 94 | 1017.3 |
| 20260508140603 | 52 | 346 | 0.0 | 0.9 | 0.00 | 0.25 | 0.00 | 93 | 1017.3 |
| 20260508140004 | 51 | 359 | 0.0 | 2.6 | 0.00 | 0.25 | 0.00 | 88 | 1017.3 |
| 20260508135511 | 51 | 359 | 0.0 | 2.6 | 0.00 | 0.30 | 0.00 | 90 | 1017.3 |
| 20260508135103 | 50 | 349 | 0.0 | 1.7 | 0.00 | 0.30 | 0.00 | 94 | 1017.2 |
| 20260508134502 | 50 | 328 | 0.9 | 1.7 | 0.00 | 0.30 | 0.00 | 95 | 1017.2 |
| 20260508134009 | 49 | 2 | 0.9 | 3.5 | 0.00 | 0.30 | 0.00 | 98 | 1017.2 |
| 20260508133603 | 50 | 6 | 0.9 | 3.5 | 0.00 | 0.30 | 0.00 | 98 | 1017.2 |
| 20260508133002 | 50 | 6 | 0.9 | 3.5 | 0.00 | 0.30 | 0.00 | 98 | 1017.1 |
| 20260508132509 | 50 | 336 | 0.0 | 2.6 | 0.00 | 0.30 | 0.00 | 98 | 1017.1 |
| 20260508132103 | 50 | 41 | 0.0 | 1.7 | 0.00 | 0.30 | 0.00 | 98 | 1017.1 |
| 20260508131503 | 49 | 309 | 0.0 | 0.0 | 0.00 | 0.30 | 0.00 | 98 | 1017.0 |
| 20260508131009 | 49 | 309 | 0.0 | 0.0 | 0.00 | 0.30 | 0.00 | 98 | 1017.0 |
| 20260508130603 | 48 | 309 | 0.0 | 0.0 | 0.00 | 0.30 | 0.00 | 98 | 1017.0 |
| 20260508130003 | 48 | 309 | 0.0 | 1.7 | 0.00 | 0.30 | 0.00 | 98 | 1016.9 |
| 20260508125509 | 48 | 310 | 0.0 | 1.7 | 0.00 | 0.39 | 0.00 | 98 | 1016.9 |
| 20260508125104 | 47 | 317 | 0.0 | 0.0 | 0.00 | 0.39 | 0.00 | 98 | 1016.9 |
| 20260508124504 | 47 | 317 | 0.0 | 0.0 | 0.00 | 0.39 | 0.00 | 98 | 1016.9 |
| 20260508124009 | 47 | 317 | 0.0 | 0.0 | 0.00 | 0.39 | 0.00 | 98 | 1016.9 |
| 20260508123602 | 46 | 317 | 0.0 | 0.0 | 0.00 | 0.39 | 0.00 | 98 | 1016.8 |
| 20260508123004 | 45 | 317 | 0.0 | 0.0 | 0.00 | 0.39 | 0.00 | 98 | 1016.8 |
| 20260508122509 | 44 | 317 | 0.0 | 0.0 | 0.00 | 0.39 | 0.00 | 98 | 1016.8 |
| 20260508122103 | 44 | 317 | 0.0 | 0.0 | 0.00 | 0.39 | 0.00 | 98 | 1016.7 |
| 20260508121503 | 43 | 317 | 0.0 | 0.0 | 0.00 | 0.39 | 0.00 | 98 | 1016.7 |
| 20260508121009 | 43 | 317 | 0.0 | 0.0 | 0.00 | 0.39 | 0.00 | 98 | 1016.7 |
| 20260508120603 | 43 | 317 | 0.0 | 0.0 | 0.00 | 0.39 | 0.00 | 98 | 1016.6 |
| 20260508120003 | 42 | 317 | 0.0 | 0.0 | 0.00 | 0.39 | 0.00 | 97 | 1016.5 |
| 20260508115510 | 42 | 317 | 0.0 | 0.0 | 0.00 | 0.44 | 0.00 | 97 | 1016.4 |
| 20260508115105 | 42 | 317 | 0.0 | 0.0 | 0.00 | 0.44 | 0.00 | 97 | 1016.4 |
| 20260508114503 | 41 | 317 | 0.0 | 0.0 | 0.00 | 0.44 | 0.00 | 97 | 1016.3 |
| 20260508114009 | 41 | 317 | 0.0 | 0.0 | 0.00 | 0.44 | 0.00 | 97 | 1016.3 |
| 20260508113602 | 41 | 317 | 0.0 | 0.0 | 0.00 | 0.44 | 0.00 | 97 | 1016.3 |
| 20260508113003 | 41 | 317 | 0.0 | 0.0 | 0.00 | 0.44 | 0.00 | 97 | 1016.2 |
| 20260508112509 | 41 | 317 | 0.0 | 0.0 | 0.00 | 0.44 | 0.00 | 97 | 1016.1 |
| 20260508112103 | 41 | 317 | 0.0 | 0.0 | 0.00 | 0.44 | 0.00 | 96 | 1016.1 |
| 20260508111503 | 41 | 317 | 0.0 | 0.0 | 0.00 | 0.44 | 0.00 | 96 | 1015.9 |
| 20260508111010 | 41 | 317 | 0.0 | 0.0 | 0.00 | 0.44 | 0.00 | 96 | 1015.8 |
| 20260508110603 | 41 | 317 | 0.0 | 0.0 | 0.00 | 0.44 | 0.00 | 96 | 1015.8 |
| 20260508110003 | 41 | 317 | 0.0 | 0.0 | 0.00 | 0.44 | 0.00 | 96 | 1015.5 |
| 20260508105509 | 41 | 317 | 0.0 | 0.0 | 0.00 | 0.46 | 0.00 | 96 | 1015.4 |
| 20260508105103 | 41 | 317 | 0.0 | 0.0 | 0.00 | 0.46 | 0.00 | 96 | 1015.4 |
| 20260508104503 | 41 | 317 | 0.0 | 0.0 | 0.00 | 0.46 | 0.00 | 96 | 1015.3 |
| 20260508104011 | 41 | 317 | 0.0 | 0.0 | 0.00 | 0.46 | 0.00 | 96 | 1015.3 |
| 20260508103603 | 41 | 317 | 0.0 | 0.0 | 0.00 | 0.46 | 0.00 | 96 | 1015.2 |
| 20260508103006 | 41 | 317 | 0.0 | 0.0 | 0.00 | 0.46 | 0.00 | 96 | 1015.1 |
| 20260508102513 | 41 | 317 | 0.0 | 0.0 | 0.00 | 0.46 | 0.00 | 96 | 1015.0 |
| 20260508102102 | 41 | 317 | 0.0 | 0.0 | 0.00 | 0.46 | 0.00 | 96 | 1015.0 |
| 20260508101505 | 41 | 317 | 0.0 | 0.0 | 0.00 | 0.46 | 0.00 | 96 | 1015.0 |
| 20260508101010 | 42 | 317 | 0.0 | 0.0 | 0.00 | 0.46 | 0.00 | 96 | 1015.0 |
| 20260508100602 | 42 | 317 | 0.0 | 0.0 | 0.00 | 0.46 | 0.00 | 96 | 1014.8 |
| 20260508100006 | 42 | 317 | 0.0 | 0.0 | 0.00 | 0.46 | 0.00 | 96 | 1014.8 |
| 20260508095510 | 42 | 317 | 0.0 | 0.0 | 0.00 | 0.47 | 0.00 | 96 | 1014.8 |
| 20260508095102 | 42 | 317 | 0.0 | 0.0 | 0.00 | 0.47 | 0.00 | 96 | 1014.7 |
| 20260508094503 | 42 | 317 | 0.0 | 0.0 | 0.00 | 0.47 | 0.00 | 96 | 1014.6 |
| 20260508094015 | 42 | 317 | 0.0 | 0.0 | 0.00 | 0.47 | 0.00 | 96 | 1014.5 |
| 20260508093603 | 42 | 317 | 0.0 | 0.0 | 0.00 | 0.47 | 0.00 | 96 | 1014.4 |
| 20260508093005 | 42 | 317 | 0.0 | 0.0 | 0.00 | 0.47 | 0.00 | 96 | 1014.4 |
| 20260508092510 | 43 | 317 | 0.0 | 0.0 | 0.00 | 0.47 | 0.00 | 96 | 1014.4 |
| 20260508092103 | 43 | 317 | 0.0 | 0.0 | 0.00 | 0.47 | 0.00 | 96 | 1014.4 |
| 20260508091506 | 43 | 316 | 0.0 | 0.0 | 0.00 | 0.47 | 0.00 | 96 | 1014.4 |
| 20260508091010 | 43 | 316 | 0.0 | 0.0 | 0.00 | 0.47 | 0.00 | 96 | 1014.4 |
| 20260508090604 | 43 | 316 | 0.0 | 0.0 | 0.00 | 0.47 | 0.00 | 96 | 1014.4 |
| 20260508090005 | 43 | 316 | 0.0 | 0.0 | 0.00 | 0.47 | 0.00 | 96 | 1014.3 |
| 20260508085509 | 43 | 316 | 0.0 | 0.0 | 0.00 | 0.48 | 0.00 | 96 | 1014.3 |
| 20260508085102 | 43 | 316 | 0.0 | 0.0 | 0.00 | 0.48 | 0.00 | 96 | 1014.3 |
| 20260508084503 | 43 | 316 | 0.0 | 0.0 | 0.00 | 0.48 | 0.00 | 96 | 1014.2 |
| 20260508084010 | 44 | 316 | 0.0 | 0.0 | 0.00 | 0.48 | 0.00 | 96 | 1014.1 |
| 20260508083603 | 44 | 316 | 0.0 | 0.0 | 0.00 | 0.48 | 0.00 | 96 | 1014.1 |
| 20260508083002 | 44 | 316 | 0.0 | 0.0 | 0.00 | 0.48 | 0.00 | 96 | 1014.2 |
| 20260508082509 | 44 | 316 | 0.0 | 0.0 | 0.00 | 0.48 | 0.00 | 96 | 1014.0 |
| 20260508082103 | 44 | 316 | 0.0 | 0.0 | 0.00 | 0.48 | 0.00 | 96 | 1013.9 |
| 20260508081503 | 44 | 316 | 0.0 | 0.0 | 0.00 | 0.48 | 0.00 | 96 | 1013.8 |
| 20260508081009 | 44 | 316 | 0.0 | 0.0 | 0.00 | 0.48 | 0.00 | 96 | 1013.7 |
| 20260508080605 | 44 | 316 | 0.0 | 0.0 | 0.00 | 0.48 | 0.00 | 96 | 1013.7 |
| 20260508080005 | 44 | 316 | 0.0 | 0.0 | 0.00 | 0.48 | 0.00 | 96 | 1013.6 |
| 20260508075509 | 45 | 316 | 0.0 | 0.0 | 0.00 | 0.48 | 0.00 | 96 | 1013.7 |
| 20260508075105 | 45 | 316 | 0.0 | 0.0 | 0.00 | 0.48 | 0.00 | 96 | 1013.6 |
| 20260508074502 | 45 | 316 | 0.0 | 0.0 | 0.00 | 0.48 | 0.00 | 96 | 1013.7 |
| 20260508074009 | 45 | 316 | 0.0 | 0.0 | 0.00 | 0.48 | 0.00 | 96 | 1013.6 |
| 20260508073603 | 45 | 316 | 0.0 | 0.0 | 0.00 | 0.48 | 0.00 | 96 | 1013.6 |
| 20260508073002 | 45 | 316 | 0.0 | 0.0 | 0.00 | 0.48 | 0.00 | 96 | 1013.5 |
| 20260508072508 | 45 | 316 | 0.0 | 0.0 | 0.00 | 0.48 | 0.00 | 96 | 1013.6 |
| 20260508072104 | 45 | 316 | 0.0 | 0.0 | 0.00 | 0.48 | 0.00 | 96 | 1013.5 |
| 20260508071503 | 46 | 316 | 0.0 | 0.0 | 0.00 | 0.48 | 0.00 | 96 | 1013.5 |
| 20260508071009 | 46 | 316 | 0.0 | 0.0 | 0.00 | 0.48 | 0.00 | 96 | 1013.5 |
| 20260508070603 | 46 | 316 | 0.0 | 0.0 | 0.00 | 0.48 | 0.00 | 96 | 1013.4 |
| 20260508070005 | 46 | 316 | 0.0 | 0.0 | 0.00 | 0.48 | 0.00 | 96 | 1013.4 |
| 20260508065517 | 46 | 316 | 0.0 | 0.0 | 0.00 | 0.50 | 0.00 | 96 | 1013.2 |
| 20260508065102 | 46 | 316 | 0.0 | 0.0 | 0.00 | 0.50 | 0.00 | 96 | 1013.3 |
| 20260508064504 | 46 | 316 | 0.0 | 0.0 | 0.00 | 0.50 | 0.00 | 96 | 1013.3 |
| 20260508064009 | 46 | 316 | 0.0 | 0.0 | 0.00 | 0.50 | 0.00 | 96 | 1013.2 |
| 20260508063602 | 47 | 316 | 0.0 | 0.0 | 0.00 | 0.50 | 0.00 | 96 | 1013.2 |
| 20260508063003 | 47 | 316 | 0.0 | 0.0 | 0.00 | 0.50 | 0.00 | 96 | 1013.2 |
| 20260508062511 | 47 | 316 | 0.0 | 0.0 | 0.00 | 0.50 | 0.00 | 96 | 1013.2 |
| 20260508062102 | 47 | 316 | 0.0 | 0.0 | 0.00 | 0.50 | 0.00 | 96 | 1013.2 |
| 20260508061505 | 47 | 316 | 0.0 | 0.0 | 0.00 | 0.50 | 0.00 | 96 | 1013.1 |
| 20260508061010 | 47 | 316 | 0.0 | 0.0 | 0.00 | 0.50 | 0.00 | 96 | 1013.1 |
| 20260508060602 | 47 | 316 | 0.0 | 0.0 | 0.00 | 0.50 | 0.00 | 96 | 1013.2 |
| 20260508060003 | 48 | 316 | 0.0 | 0.0 | 0.00 | 0.50 | 0.00 | 96 | 1013.2 |
| 20260508055509 | 48 | 316 | 0.0 | 0.9 | 0.00 | 0.52 | 0.00 | 96 | 1013.2 |
| 20260508055102 | 48 | 316 | 0.0 | 0.9 | 0.00 | 0.52 | 0.00 | 96 | 1013.1 |
| 20260508054503 | 48 | 316 | 0.0 | 0.0 | 0.00 | 0.52 | 0.00 | 96 | 1013.0 |
| 20260508054009 | 48 | 316 | 0.0 | 0.0 | 0.00 | 0.52 | 0.00 | 96 | 1013.0 |
| 20260508053603 | 48 | 316 | 0.0 | 0.0 | 0.00 | 0.52 | 0.00 | 96 | 1013.1 |
| 20260508053002 | 49 | 316 | 0.0 | 0.0 | 0.00 | 0.52 | 0.00 | 96 | 1013.1 |
| 20260508052512 | 49 | 316 | 0.0 | 0.0 | 0.00 | 0.52 | 0.00 | 96 | 1013.0 |
| 20260508052104 | 49 | 316 | 0.0 | 0.0 | 0.00 | 0.52 | 0.00 | 96 | 1013.0 |
| 20260508051503 | 49 | 316 | 0.0 | 0.0 | 0.00 | 0.52 | 0.00 | 96 | 1013.0 |
| 20260508051009 | 49 | 316 | 0.0 | 0.0 | 0.00 | 0.52 | 0.00 | 96 | 1013.1 |
| 20260508050604 | 49 | 316 | 0.0 | 0.0 | 0.00 | 0.52 | 0.00 | 96 | 1012.9 |
| 20260508050008 | 49 | 316 | 0.0 | 0.0 | 0.00 | 0.52 | 0.00 | 96 | 1012.9 |
| 20260508045511 | 49 | 316 | 0.0 | 0.0 | 0.00 | 0.52 | 0.00 | 96 | 1012.7 |
| 20260508045106 | 49 | 316 | 0.0 | 0.0 | 0.00 | 0.52 | 0.00 | 96 | 1012.8 |
| 20260508044503 | 49 | 316 | 0.0 | 0.0 | 0.00 | 0.52 | 0.00 | 96 | 1012.8 |
| 20260508044008 | 50 | 316 | 0.0 | 0.0 | 0.00 | 0.52 | 0.00 | 96 | 1012.8 |
| 20260508043603 | 50 | 316 | 0.0 | 0.0 | 0.00 | 0.52 | 0.00 | 96 | 1012.8 |
| 20260508043003 | 50 | 316 | 0.0 | 0.0 | 0.00 | 0.52 | 0.00 | 96 | 1012.7 |
| 20260508042510 | 50 | 316 | 0.0 | 0.0 | 0.00 | 0.52 | 0.00 | 96 | 1012.6 |
| 20260508042102 | 50 | 316 | 0.0 | 0.0 | 0.00 | 0.52 | 0.00 | 96 | 1012.6 |
| 20260508041503 | 50 | 316 | 0.0 | 0.0 | 0.00 | 0.52 | 0.00 | 96 | 1012.5 |
| 20260508041003 | 50 | 316 | 0.0 | 0.0 | 0.00 | 0.52 | 0.00 | 96 | 1012.5 |
| 20260508040603 | 50 | 316 | 0.0 | 0.0 | 0.00 | 0.52 | 0.00 | 96 | 1012.5 |
| 20260508040006 | 50 | 316 | 0.0 | 0.0 | 0.00 | 0.52 | 0.00 | 96 | 1012.5 |
| 20260508035509 | 50 | 316 | 0.0 | 0.0 | 0.00 | 0.62 | 0.52 | 96 | 1012.5 |
| 20260508035103 | 51 | 316 | 0.0 | 0.0 | 0.00 | 0.62 | 0.52 | 96 | 1012.4 |
| 20260508034502 | 51 | 316 | 0.0 | 0.0 | 0.00 | 0.62 | 0.52 | 96 | 1012.4 |
| 20260508034009 | 51 | 316 | 0.0 | 0.0 | 0.00 | 0.62 | 0.52 | 96 | 1012.3 |
| 20260508033603 | 51 | 316 | 0.0 | 0.0 | 0.00 | 0.62 | 0.52 | 96 | 1012.4 |
| 20260508033005 | 51 | 316 | 0.0 | 0.0 | 0.00 | 0.62 | 0.52 | 96 | 1012.3 |
| 20260508032512 | 51 | 316 | 0.0 | 0.0 | 0.00 | 0.62 | 0.52 | 95 | 1012.3 |
| 20260508032102 | 51 | 316 | 0.0 | 0.0 | 0.00 | 0.62 | 0.52 | 96 | 1012.2 |
| 20260508031609 | 51 | 315 | 0.0 | 0.9 | 0.00 | 0.62 | 0.52 | 96 | 1012.1 |
| 20260508031010 | 52 | 315 | 0.0 | 0.9 | 0.00 | 0.62 | 0.52 | 96 | 1012.0 |
| 20260508030603 | 52 | 315 | 0.0 | 0.0 | 0.00 | 0.62 | 0.52 | 96 | 1012.1 |
| 20260508030006 | 52 | 315 | 0.0 | 0.0 | 0.00 | 0.62 | 0.52 | 96 | 1011.9 |
| 20260508025514 | 52 | 315 | 0.0 | 0.0 | 0.00 | 0.73 | 0.52 | 96 | 1011.8 |
| 20260508025003 | 52 | 315 | 0.0 | 0.0 | 0.00 | 0.73 | 0.52 | 96 | 1012.1 |
| 20260508024511 | 52 | 315 | 0.0 | 0.0 | 0.00 | 0.73 | 0.52 | 95 | 1012.0 |
| 20260508024105 | 52 | 315 | 0.0 | 0.0 | 0.00 | 0.73 | 0.52 | 95 | 1012.0 |
| 20260508023503 | 52 | 315 | 0.0 | 0.0 | 0.00 | 0.73 | 0.52 | 95 | 1011.9 |
| 20260508023013 | 53 | 315 | 0.0 | 0.0 | 0.00 | 0.73 | 0.52 | 95 | 1011.9 |
| 20260508022602 | 53 | 315 | 0.0 | 0.9 | 0.00 | 0.73 | 0.52 | 95 | 1011.7 |
| 20260508022002 | 53 | 315 | 0.0 | 0.9 | 0.00 | 0.73 | 0.52 | 95 | 1011.7 |
| 20260508021509 | 53 | 316 | 0.0 | 0.0 | 0.00 | 0.73 | 0.52 | 95 | 1011.5 |
| 20260508021103 | 53 | 316 | 0.0 | 0.0 | 0.00 | 0.73 | 0.52 | 95 | 1011.4 |
| 20260508020502 | 53 | 316 | 0.0 | 0.0 | 0.00 | 0.73 | 0.52 | 95 | 1011.4 |
| 20260508020009 | 53 | 316 | 0.0 | 0.0 | 0.00 | 0.73 | 0.52 | 95 | 1011.4 |
| 20260508015603 | 54 | 316 | 0.0 | 0.0 | 0.00 | 0.74 | 0.52 | 95 | 1011.3 |
| 20260508015002 | 54 | 315 | 0.0 | 0.0 | 0.00 | 0.74 | 0.52 | 95 | 1011.2 |
| 20260508014509 | 54 | 315 | 0.0 | 0.0 | 0.00 | 0.74 | 0.52 | 95 | 1011.0 |
| 20260508014104 | 54 | 315 | 0.0 | 0.0 | 0.00 | 0.74 | 0.52 | 95 | 1010.9 |
| 20260508013502 | 54 | 315 | 0.0 | 0.0 | 0.00 | 0.74 | 0.52 | 95 | 1010.7 |
| 20260508013009 | 54 | 315 | 0.0 | 0.0 | 0.00 | 0.74 | 0.52 | 95 | 1010.6 |
| 20260508012603 | 54 | 315 | 0.0 | 0.0 | 0.00 | 0.74 | 0.52 | 95 | 1010.6 |
| 20260508012003 | 55 | 315 | 0.0 | 0.0 | 0.00 | 0.74 | 0.52 | 95 | 1010.5 |
| 20260508011511 | 55 | 315 | 0.0 | 0.0 | 0.00 | 0.74 | 0.52 | 95 | 1010.4 |
| 20260508011106 | 55 | 316 | 0.0 | 0.0 | 0.00 | 0.74 | 0.52 | 95 | 1010.3 |
| 20260508010503 | 55 | 316 | 0.0 | 0.0 | 0.00 | 0.74 | 0.52 | 95 | 1010.3 |
| 20260508010010 | 56 | 316 | 0.0 | 0.0 | 0.00 | 0.74 | 0.52 | 96 | 1010.1 |
| 20260508005508 | 56 | 316 | 0.0 | 0.0 | 0.00 | 0.75 | 0.52 | 96 | 1010.0 |
| 20260508005102 | 56 | 316 | 0.0 | 0.0 | 0.00 | 0.75 | 0.52 | 96 | 1010.0 |
| 20260508004502 | 56 | 316 | 0.0 | 0.0 | 0.00 | 0.75 | 0.52 | 96 | 1009.9 |
| 20260508004009 | 56 | 316 | 0.0 | 0.0 | 0.00 | 0.75 | 0.52 | 96 | 1009.8 |
| 20260508003602 | 56 | 316 | 0.0 | 0.0 | 0.00 | 0.75 | 0.52 | 96 | 1009.7 |
| 20260508003003 | 56 | 316 | 0.0 | 0.0 | 0.00 | 0.75 | 0.52 | 96 | 1009.9 |
| 20260508002510 | 56 | 316 | 0.0 | 0.0 | 0.00 | 0.75 | 0.52 | 96 | 1009.9 |
| 20260508002102 | 56 | 316 | 0.0 | 0.0 | 0.00 | 0.75 | 0.52 | 95 | 1009.9 |
| 20260508001503 | 56 | 316 | 0.0 | 0.0 | 0.00 | 0.75 | 0.52 | 96 | 1009.8 |
| 20260508001010 | 57 | 316 | 0.0 | 0.0 | 0.00 | 0.75 | 0.52 | 96 | 1009.8 |
| 20260508000605 | 57 | 316 | 0.0 | 0.0 | 0.00 | 0.75 | 0.52 | 96 | 1009.8 |
| 20260508000007 | 57 | 316 | 0.0 | 0.0 | 0.00 | 0.75 | 0.52 | 96 | 1009.7 |
| 20260507235509 | 57 | 316 | 0.0 | 0.0 | 0.00 | 0.75 | 0.52 | 96 | 1009.7 |
| 20260507235102 | 57 | 316 | 0.0 | 0.0 | 0.00 | 0.75 | 0.52 | 96 | 1009.8 |
| 20260507234509 | 57 | 316 | 0.0 | 0.0 | 0.00 | 0.75 | 0.52 | 96 | 1009.7 |
| 20260507234008 | 57 | 316 | 0.0 | 0.0 | 0.00 | 0.75 | 0.52 | 96 | 1009.7 |
| 20260507233604 | 57 | 316 | 0.0 | 0.0 | 0.00 | 0.75 | 0.52 | 96 | 1009.5 |
| 20260507233004 | 57 | 316 | 0.0 | 0.9 | 0.00 | 0.75 | 0.52 | 96 | 1009.4 |
| 20260507232509 | 57 | 316 | 0.0 | 0.9 | 0.00 | 0.75 | 0.52 | 96 | 1009.3 |
| 20260507232102 | 57 | 315 | 0.0 | 0.9 | 0.01 | 0.75 | 0.52 | 96 | 1009.2 |
| 20260507231503 | 57 | 315 | 0.0 | 0.9 | 0.01 | 0.75 | 0.52 | 96 | 1009.1 |
| 20260507231008 | 57 | 317 | 0.0 | 0.9 | 0.01 | 0.75 | 0.52 | 96 | 1008.9 |
| 20260507230606 | 57 | 316 | 0.0 | 0.9 | 0.01 | 0.75 | 0.52 | 96 | 1008.7 |
| 20260507230004 | 57 | 317 | 0.0 | 1.7 | 0.01 | 0.75 | 0.52 | 96 | 1008.6 |
| 20260507225511 | 57 | 317 | 0.0 | 1.7 | 0.01 | 0.75 | 0.52 | 95 | 1008.6 |
| 20260507225103 | 57 | 1 | 0.0 | 1.7 | 0.01 | 0.75 | 0.52 | 95 | 1008.6 |
| 20260507224506 | 57 | 356 | 0.0 | 2.6 | 0.01 | 0.75 | 0.52 | 95 | 1008.6 |
| 20260507224008 | 57 | 14 | 0.0 | 2.6 | 0.01 | 0.75 | 0.52 | 95 | 1008.7 |
| 20260507223605 | 57 | 323 | 0.0 | 1.7 | 0.01 | 0.75 | 0.52 | 95 | 1008.5 |
| 20260507223002 | 57 | 340 | 0.0 | 1.7 | 0.01 | 0.75 | 0.52 | 96 | 1008.2 |
| 20260507222510 | 57 | 341 | 0.0 | 1.7 | 0.01 | 0.75 | 0.52 | 95 | 1008.2 |
| 20260507222103 | 57 | 341 | 0.0 | 2.6 | 0.00 | 0.74 | 0.51 | 96 | 1008.0 |
| 20260507221504 | 57 | 337 | 0.9 | 6.1 | 0.00 | 0.74 | 0.51 | 95 | 1008.0 |
| 20260507221011 | 57 | 349 | 1.7 | 6.1 | 0.00 | 0.74 | 0.51 | 95 | 1008.1 |
| 20260507220602 | 57 | 318 | 0.0 | 1.7 | 0.01 | 0.74 | 0.51 | 95 | 1008.2 |
| 20260507220002 | 57 | 311 | 0.0 | 3.5 | 0.02 | 0.74 | 0.51 | 95 | 1008.3 |
| 20260507215510 | 57 | 313 | 0.9 | 3.5 | 0.02 | 0.74 | 0.51 | 95 | 1008.3 |
| 20260507215105 | 57 | 219 | 0.0 | 5.2 | 0.02 | 0.74 | 0.51 | 95 | 1008.1 |
| 20260507214503 | 57 | 5 | 1.7 | 5.2 | 0.03 | 0.74 | 0.51 | 95 | 1007.9 |
| 20260507214009 | 57 | 48 | 0.0 | 3.5 | 0.03 | 0.74 | 0.51 | 95 | 1007.8 |
| 20260507213603 | 57 | 316 | 0.0 | 3.5 | 0.03 | 0.74 | 0.51 | 95 | 1007.7 |
| 20260507213111 | 57 | 332 | 0.0 | 3.5 | 0.04 | 0.74 | 0.51 | 95 | 1008.0 |
| 20260507212509 | 58 | 35 | 0.0 | 2.6 | 0.05 | 0.74 | 0.51 | 96 | 1007.8 |
| 20260507212102 | 58 | 31 | 0.0 | 3.5 | 0.06 | 0.74 | 0.51 | 96 | 1007.7 |
| 20260507211505 | 57 | 304 | 0.9 | 2.6 | 0.10 | 0.74 | 0.51 | 96 | 1007.8 |
| 20260507211009 | 57 | 306 | 0.0 | 2.6 | 0.16 | 0.74 | 0.51 | 96 | 1007.8 |
| 20260507210603 | 57 | 306 | 0.0 | 4.3 | 0.17 | 0.73 | 0.50 | 96 | 1007.8 |
| 20260507210006 | 57 | 67 | 0.9 | 4.3 | 0.18 | 0.72 | 0.49 | 95 | 1008.0 |
| 20260507205508 | 57 | 314 | 0.0 | 3.5 | 0.18 | 0.72 | 0.49 | 95 | 1007.8 |
| 20260507205101 | 57 | 82 | 0.9 | 3.5 | 0.18 | 0.72 | 0.49 | 95 | 1008.0 |
| 20260507204503 | 57 | 305 | 0.0 | 4.3 | 0.17 | 0.71 | 0.48 | 95 | 1007.8 |
| 20260507204012 | 57 | 349 | 1.7 | 4.3 | 0.17 | 0.71 | 0.48 | 94 | 1007.8 |
| 20260507203603 | 57 | 13 | 1.7 | 5.2 | 0.17 | 0.71 | 0.48 | 94 | 1007.8 |
| 20260507203002 | 57 | 335 | 1.7 | 7.8 | 0.16 | 0.70 | 0.47 | 94 | 1007.5 |
| 20260507202509 | 57 | 153 | 0.0 | 6.1 | 0.15 | 0.69 | 0.46 | 94 | 1007.1 |
| 20260507201502 | 58 | 320 | 2.6 | 5.2 | 0.09 | 0.63 | 0.40 | 92 | 1007.9 |
| 20260507201009 | 58 | 15 | 0.9 | 3.5 | 0.04 | 0.57 | 0.35 | 91 | 1008.2 |
| 20260507200603 | 59 | 307 | 0.9 | 3.5 | 0.01 | 0.55 | 0.32 | 91 | 1007.6 |
| 20260507200004 | 59 | 1 | 0.9 | 6.1 | 0.00 | 0.54 | 0.31 | 90 | 1007.4 |
| 20260507195509 | 60 | 348 | 2.6 | 4.3 | 0.00 | 0.54 | 0.31 | 89 | 1007.4 |
| 20260507195105 | 60 | 4 | 0.9 | 3.5 | 0.00 | 0.54 | 0.31 | 89 | 1007.5 |
| 20260507194502 | 61 | 349 | 0.9 | 3.5 | 0.00 | 0.54 | 0.31 | 89 | 1007.0 |
| 20260507194009 | 61 | 25 | 1.7 | 3.5 | 0.00 | 0.54 | 0.31 | 89 | 1006.8 |
| 20260507193603 | 61 | 72 | 1.7 | 3.5 | 0.00 | 0.54 | 0.31 | 89 | 1007.2 |
| 20260507193003 | 62 | 86 | 0.9 | 3.5 | 0.00 | 0.54 | 0.31 | 90 | 1007.2 |
| 20260507192508 | 62 | 70 | 0.9 | 4.3 | 0.00 | 0.54 | 0.31 | 91 | 1007.0 |
| 20260507192102 | 62 | 27 | 0.9 | 4.3 | 0.00 | 0.54 | 0.31 | 89 | 1007.0 |
| 20260507191503 | 62 | 24 | 0.9 | 5.2 | 0.00 | 0.54 | 0.31 | 90 | 1006.7 |
| 20260507191008 | 62 | 340 | 1.7 | 5.2 | 0.00 | 0.54 | 0.31 | 91 | 1006.8 |
| 20260507190602 | 62 | 68 | 0.0 | 7.0 | 0.00 | 0.54 | 0.31 | 92 | 1006.9 |
| 20260507190004 | 62 | 294 | 0.9 | 7.0 | 0.00 | 0.54 | 0.31 | 91 | 1007.1 |
| 20260507185509 | 62 | 4 | 0.9 | 4.3 | 0.00 | 0.54 | 0.31 | 93 | 1007.2 |
| 20260507185102 | 62 | 19 | 0.9 | 4.3 | 0.00 | 0.54 | 0.31 | 93 | 1007.2 |
| 20260507184503 | 62 | 35 | 0.0 | 2.6 | 0.00 | 0.54 | 0.31 | 93 | 1007.3 |
| 20260507184009 | 62 | 66 | 0.0 | 3.5 | 0.00 | 0.54 | 0.31 | 92 | 1007.1 |
| 20260507183604 | 62 | 51 | 0.9 | 3.5 | 0.00 | 0.54 | 0.31 | 92 | 1007.1 |
| 20260507183007 | 63 | 323 | 0.9 | 4.3 | 0.00 | 0.54 | 0.31 | 92 | 1007.3 |